Simultaneous Nadir Overpasses (SNOs) Predictions

Prediction of SNOs between GOES-15 and TERRA Satellite Orbit:

Table of predicted SNOs for the next 14.0 days since TLE Epoch: 1/10/2015
Index Date Time (GOES-15) GOES-15 Lat,Lon TERRA Lat,Lon Distance(km) Time Diff (sec)
1 01/11/2015 07:22:19 -0.01,-134.99 0.31,-133.40 180.11 80
2 01/11/2015 19:43:35 0.02,-134.96 0.77,-138.56 408.77 80
3 01/13/2015 19:31:24 0.02,-134.90 0.18,-135.60 80.22 80
4 01/15/2015 19:21:53 0.01,-134.83 -0.43,-132.64 247.69 80
5 01/16/2015 07:43:18 -0.03,-134.82 -0.64,-137.84 343.26 80
6 01/18/2015 07:31:06 -0.02,-134.74 -0.07,-134.88 16.43 80
7 01/20/2015 07:16:15 -0.02,-134.65 0.59,-131.93 310.01 80
8 01/20/2015 19:37:29 0.03,-134.61 0.53,-137.08 280.44 80
9 01/22/2015 19:27:56
